YO4CIL-MG Weather Reports


time (UTC)temp
F
wind
direction
speed
knots
gust
knots
rain 1hr
in
rain 24hr
in
rain mn
in
humidity
%
barometer
mb
20260504050523 47 0.0 0.0 0.00 0.00 0.00 61 1015.9
20260504045523 46 0.0 0.0 0.00 0.00 0.00 62 1015.8
20260504044523 46 0.0 0.0 0.00 0.00 0.00 62 1015.7
20260504043523 45 0.0 0.0 0.00 0.00 0.00 63 1015.8
20260504042523 45 0.0 0.0 0.00 0.00 0.00 63 1015.7
20260504041523 45 0.0 0.0 0.00 0.00 0.00 63 1015.6
20260504040523 45 0.0 0.0 0.00 0.00 0.00 63 1015.5
20260504035523 44 0.0 0.0 0.00 0.00 0.00 62 1015.5
20260504034523 44 0.0 0.0 0.00 0.00 0.00 62 1015.5
20260504033523 44 0.0 0.0 0.00 0.00 0.00 63 1015.4
20260504032523 44 0.0 0.0 0.00 0.00 0.00 63 1015.4
20260504031523 44 0.0 0.0 0.00 0.00 0.00 62 1015.2
20260504030523 43 0.0 0.0 0.00 0.00 0.00 62 1015.2
20260504025523 43 0.0 0.0 0.00 0.00 0.00 62 1015.2
20260504024523 43 0.0 0.0 0.00 0.00 0.00 63 1015.3
20260504023523 43 0.0 0.0 0.00 0.00 0.00 64 1015.2
20260504022522 43 0.0 0.0 0.00 0.00 0.00 64 1015.3
20260504021523 43 0.0 0.0 0.00 0.00 0.00 65 1015.5
20260504020522 43 0.0 0.0 0.00 0.00 0.00 65 1015.6
20260504015522 43 0.0 0.0 0.00 0.00 0.00 65 1015.6
20260504014523 43 0.0 0.0 0.00 0.00 0.00 66 1015.7
20260504013522 43 0.0 0.0 0.00 0.00 0.00 65 1015.8
20260504012522 43 0.0 0.0 0.00 0.00 0.00 65 1015.9
20260504011522 44 0.0 0.0 0.00 0.00 0.00 64 1016.1
20260504010523 44 0.0 0.0 0.00 0.00 0.00 63 1016.2
20260504005522 43 0.0 0.0 0.00 0.00 0.00 63 1016.2
20260504004522 43 0.0 0.0 0.00 0.00 0.00 61 1016.4
20260504003522 43 0.0 0.0 0.00 0.00 0.00 61 1016.6
20260504002522 43 0.0 0.0 0.00 0.00 0.00 61 1016.7
20260504001522 43 0.0 0.0 0.00 0.00 0.00 61 1016.7
20260504000522 43 0.0 0.0 0.00 0.00 0.00 61 1016.8
20260503235522 43 0.0 0.0 0.00 0.00 0.00 61 1016.8
20260503234522 44 0.0 0.0 0.00 0.00 0.00 60 1016.8
20260503233522 44 0.0 0.0 0.00 0.00 0.00 59 1016.8
20260503232523 44 0.0 0.0 0.00 0.00 0.00 59 1016.9
20260503231523 44 0.0 0.0 0.00 0.00 0.00 59 1017.0
20260503230523 44 0.0 0.0 0.00 0.00 0.00 59 1017.0
20260503225522 44 0.0 0.0 0.00 0.00 0.00 60 1017.1
20260503224522 44 0.0 0.0 0.00 0.00 0.00 60 1017.3
20260503223522 44 0.0 0.0 0.00 0.00 0.00 61 1017.3
20260503222522 44 0.0 0.0 0.00 0.00 0.00 61 1017.5
20260503221522 44 0.0 0.0 0.00 0.00 0.00 61 1017.4
20260503220522 44 0.0 0.0 0.00 0.00 0.00 61 1017.4
20260503215523 44 0.0 0.0 0.00 0.00 0.00 61 1017.4
20260503214522 44 0.0 0.0 0.00 0.00 0.00 61 1017.4
20260503213522 45 0.0 0.0 0.00 0.00 0.00 59 1017.4
20260503212522 44 0.0 0.0 0.00 0.00 0.00 61 1017.3
20260503211522 44 0.0 0.0 0.00 0.00 0.00 61 1017.4
20260503210522 45 0.0 0.0 0.00 0.00 0.00 61 1017.4
20260503205522 45 0.0 0.0 0.00 0.00 0.00 61 1017.4
20260503204522 45 0.0 0.0 0.00 0.00 0.00 61 1017.5
20260503203522 45 0.0 0.0 0.00 0.00 0.00 62 1017.6
20260503202522 45 0.0 0.0 0.00 0.00 0.00 62 1017.8
20260503201522 45 0.0 0.0 0.00 0.00 0.00 62 1018.0
20260503200522 45 0.0 0.0 0.00 0.00 0.00 61 1018.0
20260503195522 45 0.0 0.0 0.00 0.00 0.00 61 1018.1
20260503194522 45 0.0 0.0 0.00 0.00 0.00 61 1018.1
20260503193522 45 0.0 0.0 0.00 0.00 0.00 60 1018.3
20260503192522 45 0.0 0.0 0.00 0.00 0.00 61 1018.3
20260503191522 46 0.0 0.0 0.00 0.00 0.00 60 1018.4
20260503190522 46 0.0 0.0 0.00 0.00 0.00 60 1018.5
20260503185522 47 0.0 0.0 0.00 0.00 0.00 59 1018.7
20260503184522 48 0.0 0.0 0.00 0.00 0.00 58 1018.8
20260503182522 50 0.0 0.0 0.00 0.00 0.00 55 1019.0
20260503181522 50 0.0 0.0 0.00 0.00 0.00 55 1018.9
20260503180522 50 0.0 0.0 0.00 0.00 0.00 56 1018.9
20260503175522 51 0.0 0.0 0.00 0.00 0.00 54 1019.0
20260503174522 52 0.0 0.0 0.00 0.00 0.00 54 1019.0
20260503173522 52 0.0 0.0 0.00 0.00 0.00 52 1019.0
20260503172522 53 0.0 0.0 0.00 0.00 0.00 51 1019.1
20260503171522 53 0.0 0.0 0.00 0.00 0.00 49 1019.2
20260503170522 53 0.0 0.0 0.00 0.00 0.00 49 1019.1
20260503150523 57 0.0 0.0 0.00 0.00 0.00 47 1019.6
20260503130522 56 0.0 0.0 0.00 0.00 0.00 51 1020.2
20260503110524 56 0.0 0.0 0.00 0.00 0.00 51 1021.6
20260503081522 55 0.0 0.0 0.00 0.00 0.00 57 1022.0
20260503080522 55 0.0 0.0 0.00 0.00 0.00 59 1022.0
20260503072522 54 0.0 0.0 0.00 0.00 0.00 68 1021.7
20260503071522 53 0.0 0.0 0.00 0.00 0.00 67 1021.8
20260503070522 53 0.0 0.0 0.00 0.00 0.00 67 1021.8
20260503054522 51 0.0 0.0 0.00 0.00 0.00 61 1021.2
20260503053522 51 0.0 0.0 0.00 0.00 0.00 71 1021.3
20260503052521 49 0.0 0.0 0.00 0.00 0.00 73 1021.2